Theta_e
320 321 322 325 325 324 324 323 321 320 319 319 318 317 317 315 314 313 313 312 310 309 308 307 308 309 302 291 293 299 319 322 314 303 298 296 292 289 286 288 289 289 291 293 295 295 294
317 318 319 320 323 324 324 323 322 320 319 318 317 316 316 315 314 313 312 311 309 307 307 307 307 308 297 284 295 303 303 308 304 300 298 298 295 294 293 293 290 292 291 292 292 292 292
315 316 317 318 319 320 323 322 321 320 319 318 317 316 315 314 313 312 311 310 307 307 307 307 307 305 297 290 298 299 302 304 303 300 298 300 301 293 292 289 294 294 289 291 292 292 292
316 315 316 316 317 318 318 321 321 320 319 318 317 315 314 313 312 312 310 307 307 307 307 307 309 304 292 304 302 302 301 301 301 300 301 300 298 293 290 292 291 288 287 283 290 290 292
314 315 315 316 316 316 317 319 320 320 320 318 317 314 313 311 311 309 306 306 306 306 306 307 304 299 290 305 301 306 303 299 297 299 298 301 295 290 289 285 282 283 280 282 286 291 290
315 316 316 316 316 316 317 317 319 320 319 317 316 314 312 311 309 306 306 305 304 304 304 306 305 291 295 293 302 301 302 300 297 297 294 291 288 284 283 282 276 279 280 279 281 286 287
313 314 315 316 317 318 317 318 319 319 318 317 315 313 312 310 307 305 301 297 297 295 295 292 293 290 294 302 304 295 300 298 296 293 287 287 283 281 284 283 284 284 282 281 282 286 284
311 312 315 317 319 319 318 318 318 318 317 316 314 313 311 308 306 305 300 292 296 295 286 296 297 297 299 301 295 300 298 293 289 286 289 286 281 286 286 285 284 283 281 280 283 286 284
310 310 312 314 318 318 318 318 318 318 317 315 313 311 309 307 305 301 295 293 301 297 285 287 294 295 297 300 295 296 296 291 287 285 285 283 287 291 287 285 284 282 280 281 282 285 285
311 309 311 313 316 317 317 318 318 318 315 313 311 310 307 305 297 295 290 296 297 296 279 281 287 293 298 300 294 301 297 293 287 285 284 283 288 288 286 285 285 281 287 286 285 282 277
309 310 311 313 315 316 316 317 318 316 314 311 310 308 305 302 295 294 297 301 301 297 271 285 289 297 298 292 291 293 298 293 287 286 286 283 286 285 284 286 287 284 289 287 285 281 279
307 310 313 314 315 315 315 316 316 314 312 310 308 306 303 299 296 298 299 302 299 283 272 285 290 289 290 292 290 294 294 295 293 288 287 286 289 289 287 289 288 289 286 285 284 282 276
306 308 311 315 315 315 315 315 313 311 309 308 306 304 299 299 292 299 299 295 280 274 287 286 287 290 289 288 288 289 288 286 284 280 279 285 285 288 290 287 289 286 282 277 274 274 275
305 305 306 311 315 314 314 311 309 308 307 306 303 301 299 298 298 299 296 288 274 281 282 286 285 286 282 283 284 284 285 283 287 286 283 279 277 285 289 286 282 283 282 277 273 274 275
305 305 304 304 306 308 309 308 307 305 304 302 299 294 294 295 296 297 291 278 276 282 284 283 285 281 281 284 284 284 284 284 285 286 281 281 281 288 288 287 284 282 281 285 280 280 277
305 305 304 304 302 302 302 302 302 301 300 298 291 291 292 299 298 296 286 281 284 286 286 286 281 283 279 281 281 281 282 285 285 287 287 284 276 284 286 285 285 283 284 276 278 272 273
303 304 304 304 304 303 302 302 301 300 299 299 293 286 295 299 299 291 280 284 285 288 288 285 282 281 282 281 281 280 282 285 286 286 286 282 279 279 281 280 277 279 277 280 282 278 273
302 302 302 303 303 302 302 301 300 299 300 297 291 283 296 298 286 287 283 287 289 286 289 287 287 284 282 282 280 280 281 284 288 286 280 283 280 275 277 282 284 281 281 282 269 271 276
302 301 301 302 301 302 301 301 300 300 299 292 287 287 295 294 281 282 286 285 286 285 285 285 284 285 285 281 278 282 284 288 288 285 282 283 277 273 274 278 281 279 280 282 281 280 275
301 301 300 300 301 300 300 300 300 300 300 292 285 280 286 290 289 285 283 283 282 287 285 285 284 285 282 281 282 280 281 284 286 287 291 286 279 276 271 275 279 277 279 280 277 267 273
301 299 299 299 298 299 299 299 299 300 300 292 286 280 285 281 283 283 284 284 281 281 284 285 282 282 281 278 278 277 279 280 282 288 284 281 276 278 279 279 280 279 278 278 276 277 273
301 300 298 298 298 299 299 299 299 300 299 291 285 284 285 283 285 283 282 282 281 282 282 280 280 281 280 278 278 276 279 279 278 283 280 281 272 277 276 279 279 276 277 278 278 278 278
300 300 300 299 298 298 299 298 299 299 298 288 288 289 285 282 281 280 280 282 282 283 284 284 282 280 279 280 281 281 282 282 281 279 277 278 275 273 268 276 276 271 276 278 280 283 280
299 300 299 299 299 298 298 298 299 300 299 291 289 287 283 279 280 281 284 284 282 283 281 284 283 281 283 286 284 283 281 281 280 280 280 277 273 273 271 274 265 274 285 284 282 282 284
298 299 299 298 298 298 298 299 301 300 298 291 290 287 284 278 282 283 283 282 283 283 282 283 284 285 285 283 278 276 276 278 279 279 279 280 277 268 267 267 273 278 281 281 280 278 282
299 299 299 298 298 298 299 300 302 301 299 291 289 290 287 282 281 286 282 282 278 277 279 282 285 286 283 275 274 273 271 275 273 279 281 280 281 271 268 267 268 276 282 285 286 276 281
299 299 299 298 298 298 299 300 301 301 299 293 290 291 288 281 285 285 280 280 281 278 276 279 281 281 282 270 268 268 273 280 275 277 275 276 276 272 272 271 275 280 281 286 277 274 280
299 299 299 298 298 298 299 300 301 301 299 293 290 291 288 282 284 287 286 281 281 279 274 279 277 277 276 271 274 272 275 278 277 280 278 277 274 273 275 272 271 282 282 278 280 281 280
299 299 299 299 299 298 299 300 301 300 299 295 288 292 291 285 284 287 288 287 285 284 281 281 277 279 277 276 278 280 276 278 278 274 282 275 279 277 278 276 281 282 281 284 284 281 280
Wind_Speed
19 20 21 21 24 24 24 24 24 23 22 20 18 17 15 15 13 10 7 5 6 10 10 11 11 10 4 3 12 4 2 5 6 8 6 6 5 5 5 5 3 5 5 7 8 9 7
19 20 21 23 24 24 25 26 26 24 24 22 21 18 16 14 12 10 8 6 7 8 10 11 8 8 1 5 3 3 4 4 5 4 5 6 6 7 4 4 5 2 5 7 6 7 5
22 22 23 24 25 26 26 26 27 25 25 24 22 20 18 15 12 10 9 7 7 9 10 11 8 5 4 19 3 4 3 3 3 5 4 4 4 2 1 4 2 4 4 6 6 6 7
24 25 26 26 27 27 28 26 27 26 25 25 23 21 17 14 11 8 6 7 9 10 10 11 9 5 10 5 3 7 5 4 6 6 5 4 2 3 3 5 6 3 1 2 5 3 4
26 28 29 29 29 30 30 29 28 27 25 24 22 21 18 15 11 7 5 8 12 12 11 7 4 3 12 6 5 9 9 8 7 4 5 1 4 6 2 2 4 3 4 3 6 4 5
28 28 31 32 31 31 31 32 30 27 27 25 24 21 18 15 10 6 2 7 11 5 1 5 5 3 6 4 3 3 5 4 4 3 3 4 2 3 2 4 6 5 3 3 4 7 5
28 30 32 33 30 29 31 31 30 27 26 25 26 24 20 18 12 5 3 3 3 1 4 12 8 5 5 5 5 4 5 7 5 4 5 3 3 7 9 6 3 2 3 5 5 12 3
26 28 29 30 29 28 29 30 30 25 26 26 26 24 22 17 14 11 4 4 3 2 8 17 18 13 8 2 4 6 6 6 6 7 5 2 5 9 5 4 5 5 5 6 6 11 6
24 27 28 28 29 26 27 28 27 25 26 26 26 24 22 19 13 9 5 12 2 3 5 8 10 10 9 10 8 8 9 5 5 6 7 8 7 3 6 4 5 6 5 5 9 5 4
29 30 32 30 28 23 24 25 25 24 26 27 26 25 23 20 7 4 5 9 4 3 3 8 6 9 10 9 8 11 9 7 3 10 7 6 7 9 6 7 8 6 10 11 7 1 4
27 28 30 31 25 18 19 21 22 25 27 29 27 28 26 14 8 6 2 6 6 3 2 4 5 2 10 13 3 5 5 2 8 7 7 7 5 5 5 7 7 8 6 7 5 4 2
22 25 26 24 18 15 16 18 20 27 29 29 29 28 24 6 3 2 2 7 5 2 11 3 5 6 8 5 1 5 6 2 3 5 1 5 1 2 4 1 2 5 2 3 3 3 5
17 22 21 16 15 15 16 18 24 28 30 29 29 26 12 5 5 1 4 5 3 6 4 4 5 6 5 5 2 2 6 4 4 4 2 2 0 1 4 3 4 8 3 2 3 0 7
13 22 27 16 11 13 20 26 29 29 29 29 27 21 14 3 5 6 4 2 7 8 8 3 2 7 4 0 2 3 5 4 6 3 3 4 3 3 5 4 2 1 2 3 5 3 5
3 15 24 30 31 28 20 27 31 31 31 30 22 4 4 3 5 3 8 5 6 3 4 2 4 4 2 2 3 4 5 3 2 2 4 4 2 1 3 2 1 3 2 3 3 2 3
3 8 15 22 25 29 29 27 27 30 29 21 7 6 2 3 6 4 3 7 4 2 3 4 2 4 2 2 3 3 3 1 3 3 1 3 1 3 3 1 5 6 3 4 2 3 5
4 11 15 17 20 22 25 26 26 24 22 20 7 6 5 6 2 2 6 5 2 2 2 6 3 3 3 1 1 2 2 1 2 2 4 3 2 2 2 1 0 4 1 1 1 2 3
9 10 11 13 17 20 21 23 23 24 23 7 4 5 4 4 4 2 3 3 6 1 9 4 3 3 3 1 2 3 3 3 2 3 3 2 4 2 6 4 3 4 3 2 5 5 3
14 13 10 11 13 16 19 20 20 18 10 3 3 4 2 1 4 6 4 0 5 4 4 1 3 1 1 2 3 3 4 3 3 3 6 4 1 1 3 4 4 4 2 2 0 3 6
15 14 13 9 13 14 15 16 16 17 9 2 4 4 3 1 2 6 4 4 4 4 3 4 3 4 4 3 5 3 3 3 4 3 5 4 3 5 4 1 2 3 4 2 5 2 5
17 15 14 14 7 13 13 13 13 11 7 2 2 4 6 8 4 4 4 4 5 3 3 4 4 4 3 3 2 2 2 3 2 2 3 4 4 4 4 3 3 7 12 11 12 14 11
17 17 15 16 11 11 10 10 10 9 6 1 3 4 3 4 4 6 2 2 5 3 3 2 5 2 5 3 1 3 3 2 3 2 3 2 2 2 3 4 8 16 15 14 14 17 15
16 16 14 15 11 8 8 7 6 8 8 1 0 1 4 2 3 5 2 4 5 6 6 5 6 4 4 2 1 3 5 4 5 6 5 4 4 3 4 2 9 12 10 8 13 16 16
14 16 14 13 12 8 6 3 2 6 11 2 2 2 5 1 3 4 6 7 6 3 6 2 5 4 1 4 4 3 4 7 7 8 8 6 5 3 3 4 5 7 3 6 9 10 8
13 16 17 11 9 7 4 2 2 6 11 3 1 2 4 3 6 10 10 9 7 6 5 4 4 1 3 5 3 4 4 2 2 3 8 10 5 1 2 3 9 8 4 4 5 4 9
15 18 17 14 9 6 4 4 5 4 7 4 2 1 4 7 2 4 6 4 4 3 3 2 4 3 6 4 3 2 1 2 4 3 8 8 6 5 2 3 4 2 11 8 5 2 6
15 16 16 13 10 7 6 7 8 9 9 4 3 3 5 6 1 2 4 5 4 4 3 2 2 4 4 2 3 2 2 3 2 3 3 6 4 8 5 2 6 11 18 9 3 3 6
15 15 15 13 9 7 7 8 8 9 8 5 1 3 5 4 2 4 3 5 3 3 4 3 4 5 3 4 2 1 1 2 3 1 2 4 6 4 4 4 5 16 7 5 4 7 8
13 16 14 12 10 9 8 10 12 10 7 4 4 3 3 7 4 2 4 2 3 7 6 3 5 2 4 4 1 1 1 2 3 2 6 3 3 2 3 3 3 5 6 10 9 7 7
Wind_Direction
300 292 286 274 244 235 234 232 229 226 228 225 225 228 226 232 246 254 264 272 298 308 315 315 325 328 13 45 250 303 24 121 141 144 171 160 153 165 190 201 202 220 240 248 242 256 247
303 296 285 277 271 251 238 235 232 226 224 222 216 213 218 222 231 249 262 278 297 305 309 310 318 314 77 273 197 34 322 167 174 162 180 170 198 197 244 233 181 217 220 261 268 255 255
300 296 288 280 272 266 252 243 232 229 224 221 216 207 204 207 219 238 253 275 289 301 304 304 295 251 254 242 213 246 348 237 194 180 181 205 196 158 191 295 272 260 295 291 245 237 239
297 294 286 279 271 261 256 243 238 230 224 222 214 200 195 199 207 221 250 284 294 294 296 297 282 237 252 270 267 270 154 250 235 249 243 270 194 212 178 280 344 327 78 327 297 349 259
293 291 285 278 270 262 253 249 232 225 223 217 208 195 187 181 196 183 254 294 288 291 285 267 250 223 263 307 253 251 174 198 187 196 212 163 147 191 203 162 1 344 259 251 304 260 278
295 292 285 278 271 264 255 247 240 231 220 206 198 189 184 171 174 169 278 290 290 290 221 168 248 276 256 263 247 216 185 144 165 176 112 138 115 171 62 121 226 220 230 244 259 296 292
301 296 295 287 273 263 257 245 238 220 216 200 186 183 174 161 156 152 108 21 234 88 240 191 197 242 283 285 288 241 169 147 157 138 173 168 138 202 221 207 209 227 238 245 251 261 298
311 305 295 291 272 259 250 242 234 215 198 189 187 178 161 152 156 124 115 253 235 337 294 231 243 238 270 16 315 272 146 147 148 190 135 61 228 231 205 192 212 239 258 276 277 264 178
313 311 301 294 280 262 245 234 225 210 198 187 174 164 152 146 145 147 188 216 28 313 262 264 210 224 214 174 234 252 161 150 161 172 184 179 218 147 173 226 213 227 197 238 227 309 267
306 311 304 295 277 253 238 227 220 200 187 171 165 150 143 131 130 143 213 227 247 240 290 267 222 245 173 172 232 209 190 146 176 202 176 217 235 229 204 232 196 245 211 226 250 51 252
309 309 298 296 261 228 226 220 204 185 172 162 156 144 139 146 128 171 326 123 138 36 286 209 185 167 154 169 150 208 161 100 165 185 128 234 184 149 196 215 167 229 228 229 232 221 279
324 315 299 290 238 220 219 205 186 171 162 152 146 142 143 120 109 152 141 77 52 167 242 228 151 164 151 215 235 115 148 120 153 144 135 235 266 200 220 194 186 295 252 287 69 145 259
358 350 343 268 233 219 211 192 169 154 144 139 137 138 124 132 156 38 107 128 144 191 311 200 174 149 173 162 207 158 127 50 162 124 161 354 322 358 50 69 13 28 62 322 319 241 234
28 29 27 39 237 195 162 141 133 132 131 129 128 126 139 137 159 171 138 154 196 212 233 327 91 104 150 54 78 108 99 118 32 74 118 164 164 11 338 100 241 295 146 170 247 229 278
15 77 59 51 63 73 103 123 124 122 122 117 107 43 70 223 159 163 155 200 199 278 341 17 63 108 86 27 114 89 70 88 71 26 148 140 244 82 90 256 172 323 64 164 262 256 260
183 96 91 94 87 82 83 87 102 110 114 112 103 106 242 143 146 91 169 219 240 300 315 6 117 30 114 21 58 72 103 323 114 36 19 190 194 8 291 123 37 88 277 14 352 274 240
69 95 104 110 113 114 117 120 118 116 114 119 113 102 209 150 142 106 182 237 262 334 219 41 82 93 71 101 91 93 91 70 110 80 81 138 129 247 16 268 45 3 352 0 170 194 242
162 133 123 119 121 124 126 129 132 142 155 166 150 117 183 152 122 204 199 201 195 59 55 26 74 73 103 207 98 87 119 92 131 131 110 44 116 149 228 296 296 142 135 116 119 282 280
146 133 118 129 135 137 137 141 147 161 156 112 96 94 18 166 160 177 248 93 40 45 41 135 101 117 148 107 100 99 97 41 76 122 160 176 127 112 102 48 29 105 123 127 113 203 231
151 146 144 127 150 139 141 146 153 170 174 83 106 116 83 218 263 184 163 145 118 60 75 70 83 72 77 67 27 134 96 41 17 72 103 105 157 185 201 149 149 263 226 220 173 163 262
157 152 142 132 133 143 145 153 160 170 179 126 73 161 168 188 235 194 130 136 119 120 75 45 46 66 134 126 101 101 79 29 360 184 56 108 200 217 236 254 245 259 261 256 245 243 237
163 150 152 139 156 136 145 150 163 178 160 131 148 125 68 130 123 130 55 113 124 105 93 70 115 105 64 109 94 170 134 165 227 65 105 22 251 165 249 253 254 272 273 266 253 250 251
151 151 150 142 150 148 153 163 180 204 180 100 310 306 115 352 107 92 168 143 136 120 39 58 135 109 75 51 199 220 203 194 195 172 180 146 130 71 284 329 322 288 270 269 270 255 233
155 152 148 137 143 160 155 169 246 199 184 154 199 114 88 51 95 117 121 104 114 90 124 54 71 95 80 317 297 283 229 227 225 226 172 154 122 118 261 22 260 245 47 336 14 33 356
166 148 136 134 135 130 113 36 26 135 181 111 140 110 114 87 112 92 91 108 71 59 66 79 35 38 306 34 18 332 345 310 261 196 204 200 145 146 173 196 276 292 11 335 324 26 3
155 145 135 133 132 121 92 45 59 120 120 91 72 277 93 118 354 83 91 92 116 93 38 50 18 358 62 81 63 33 327 305 316 172 14 165 175 131 117 214 263 5 334 318 264 149 16
155 137 132 129 122 105 80 54 58 74 83 110 59 359 88 99 29 79 107 131 111 96 107 346 358 24 53 63 73 117 284 321 297 283 134 118 139 198 233 299 285 349 328 312 222 45 35
135 135 131 126 118 104 76 54 54 63 64 85 202 355 111 93 25 38 95 114 81 101 133 213 50 354 43 71 94 284 284 320 315 319 274 157 174 168 194 208 276 358 359 37 66 65 67
126 130 125 119 116 99 75 53 55 59 60 103 66 353 7 80 128 46 50 70 127 164 126 46 152 172 191 81 231 260 283 294 270 8 351 61 357 77 3 73 53 2 29 43 56 75 77